Wind_Speed
24 24 24 23 22 20 20 19 20 21 23 24 26 28 29 31 32 34 36 39 42 43 44 45 47 49 52 56 62 69 78 88 98 107 114 117 118 117 116 114 112 110 106 104 105 106 105 105 106 105 104 103 102 101 100 99 98 97 96 95 94 92 91
22 22 23 22 20 18 17 15 15 15 16 17 19 21 23 25 27 30 33 36 38 40 41 41 43 46 49 52 55 60 67 75 84 94 104 113 118 119 119 118 116 114 110 107 106 105 105 106 107 107 106 105 104 104 103 102 100 99 97 96 96 95 94
22 22 21 21 20 18 15 13 12 11 12 13 14 16 18 21 25 28 31 33 34 35 36 36 37 40 44 47 50 54 59 66 73 81 91 101 111 117 119 120 119 117 114 111 108 106 105 105 107 107 107 106 107 107 106 105 103 101 100 98 97 96 95
23 22 21 20 19 18 15 13 11 9 9 11 13 15 18 21 24 26 28 29 30 31 30 31 31 33 36 40 43 47 51 56 63 71 79 88 98 108 114 118 119 119 118 115 112 109 107 106 107 108 108 108 109 109 109 108 106 105 104 102 100 98 97
24 23 22 21 19 18 16 14 11 9 9 11 13 16 19 21 23 25 26 27 27 27 27 27 27 27 28 30 34 38 42 47 52 60 68 76 84 94 103 110 116 119 120 118 116 113 111 109 108 108 108 109 110 111 111 110 109 108 107 105 103 101 100
25 24 24 23 21 18 17 15 13 10 10 11 14 17 19 21 22 23 24 25 25 24 24 24 24 24 24 24 25 28 33 38 43 48 55 63 70 78 88 97 106 113 117 119 118 116 114 113 112 110 109 109 110 111 111 111 111 110 109 108 106 104 103
24 24 24 24 23 21 18 16 14 12 11 12 13 16 18 20 22 23 23 23 23 23 23 23 23 23 23 22 21 21 24 28 33 38 43 50 56 64 72 80 90 99 107 113 116 117 117 116 115 113 111 110 110 110 111 111 111 111 110 109 108 107 106
24 23 24 23 23 22 21 18 16 14 13 12 13 15 17 19 20 21 22 22 22 22 22 22 22 22 22 21 20 19 18 19 22 27 32 37 43 50 57 64 72 81 90 98 106 111 115 116 117 116 114 113 112 112 111 110 110 110 110 110 110 109 109
23 23 22 22 22 22 22 21 18 16 14 14 13 14 15 17 18 19 20 21 22 21 21 22 22 22 21 20 20 19 17 16 16 17 21 25 30 35 42 48 56 63 71 80 89 97 104 110 113 114 114 114 114 113 111 110 111 110 110 110 111 111 111
22 23 22 22 21 21 21 21 20 18 16 15 15 15 15 15 16 18 19 20 21 21 22 22 21 21 20 20 19 19 18 17 15 14 15 17 20 23 28 33 39 45 53 61 70 78 87 96 102 106 109 111 112 113 112 112 113 112 111 111 112 112 111
20 21 22 22 22 21 21 21 20 19 18 17 16 15 16 16 16 17 18 19 20 21 21 21 21 20 20 20 19 19 18 18 17 16 15 15 16 17 19 23 26 31 36 43 51 59 67 76 83 90 96 101 105 108 110 111 112 112 112 113 113 112 111
18 19 20 21 22 22 21 21 21 19 18 17 17 16 16 17 18 18 19 20 20 20 21 21 21 21 20 20 19 19 19 18 18 17 17 16 16 16 16 18 19 22 25 30 36 42 49 56 63 70 77 85 91 97 101 105 108 110 112 113 114 114 112
18 18 19 20 21 21 21 21 21 21 20 18 17 17 17 17 17 18 20 21 21 21 21 21 21 21 21 21 20 20 19 19 18 18 18 18 17 16 16 17 17 19 21 23 26 30 34 39 45 51 57 65 73 80 87 93 98 103 107 110 112 114 114
19 19 19 19 20 21 20 20 20 21 21 20 18 17 16 17 17 17 18 19 21 22 23 22 22 22 23 22 22 21 21 20 20 20 20 19 19 18 18 18 18 19 20 21 23 24 26 29 33 37 41 47 54 61 68 75 82 88 94 99 104 109 112
21 20 20 20 20 22 21 20 20 20 21 21 21 19 17 17 18 18 17 18 19 21 23 24 24 24 25 25 24 24 23 22 22 22 21 21 20 20 20 19 19 20 21 21 22 23 25 27 29 31 34 37 41 45 51 57 63 69 77 84 91 96 101
23 22 22 21 21 22 22 22 21 21 21 22 22 21 20 19 18 18 19 18 19 20 22 25 26 26 27 27 26 26 25 24 24 23 22 22 21 22 22 21 20 21 22 22 23 24 26 28 29 31 33 34 35 37 41 45 49 55 61 68 74 79 84
26 24 23 24 23 23 23 23 23 23 23 23 23 23 22 21 20 19 19 20 20 21 22 24 26 28 28 28 28 28 27 26 25 25 24 23 23 22 22 22 22 22 22 23 24 25 27 29 30 31 32 33 33 35 37 39 42 46 50 54 59 64 68
29 28 26 26 25 25 25 25 25 25 25 25 25 24 24 23 22 21 20 21 22 23 23 24 25 27 28 28 29 28 28 28 27 26 26 25 24 23 22 22 23 24 23 24 25 26 28 29 30 31 32 32 32 33 35 36 38 40 43 45 48 51 54
33 32 30 29 28 27 27 28 27 27 27 27 26 26 25 24 23 22 21 21 22 23 23 22 21 23 26 27 27 28 28 28 27 27 27 26 25 24 23 24 25 25 24 25 26 27 28 29 30 31 31 31 31 32 33 34 34 36 37 38 39 41 44
35 35 34 32 31 30 29 29 30 30 30 29 28 28 27 25 24 23 21 21 22 22 21 18 16 17 20 22 24 25 26 27 27 27 27 27 27 25 25 27 27 26 26 27 27 28 28 29 30 30 30 30 30 31 31 31 32 32 32 32 33 34 35
33 35 35 34 34 33 32 32 32 33 32 31 31 30 28 26 25 24 21 20 20 20 19 16 13 12 14 17 19 21 23 24 26 27 27 28 27 27 27 28 27 26 27 27 27 28 28 28 29 29 28 28 28 29 29 29 29 29 29 29 29 29 30
31 32 33 33 33 34 34 34 34 34 34 34 32 31 29 26 24 23 21 19 18 18 17 15 13 12 13 14 16 18 20 21 23 25 26 26 26 26 27 27 26 26 26 27 27 27 27 26 26 26 26 26 26 26 27 27 28 28 28 28 28 28 28
29 30 30 31 31 31 31 32 32 33 33 33 32 30 28 25 23 22 21 18 16 15 15 13 12 12 12 14 15 16 17 18 20 21 23 24 24 25 26 26 25 25 25 26 26 27 26 25 25 24 24 25 25 26 27 27 27 28 28 28 28 28 28
29 29 28 28 29 29 28 28 28 28 28 27 27 26 25 23 21 21 20 18 15 14 13 12 11 11 11 12 13 14 14 15 16 18 20 21 23 23 24 25 25 25 25 25 26 26 26 26 26 25 25 26 27 28 28 27 27 28 29 30 30 30 29
28 28 28 27 27 27 27 27 26 25 24 23 22 22 22 21 20 20 20 19 16 14 13 12 11 10 10 10 10 11 11 12 13 14 16 18 20 22 23 24 25 25 25 25 25 26 27 27 27 26 27 28 29 29 28 28 29 30 31 32 32 31 30
27 27 27 27 26 26 26 26 26 25 24 22 21 21 20 20 20 20 20 20 18 16 14 13 12 11 10 10 9 9 9 10 10 11 12 15 17 20 22 24 25 25 25 25 25 26 26 27 27 28 29 29 29 29 29 30 31 31 32 32 32 32 32
26 26 27 26 25 25 25 25 25 25 24 23 22 21 20 19 19 20 20 20 20 18 16 15 14 13 12 11 10 9 9 9 9 9 11 12 14 16 19 21 23 24 24 25 25 26 26 27 28 29 30 30 30 30 31 32 32 33 33 33 33 32 33
27 25 26 26 25 25 24 24 24 24 24 24 23 23 22 21 20 20 21 21 21 20 18 17 16 15 14 13 11 10 10 9 9 9 10 11 12 13 15 17 18 20 22 23 24 25 26 27 28 29 30 31 31 32 33 33 33 34 34 34 33 33 32
28 25 25 25 25 24 24 24 25 24 25 24 24 24 24 23 21 20 21 22 22 22 21 19 18 17 16 15 14 13 12 11 10 10 11 11 12 13 13 14 15 16 18 20 21 23 24 25 27 28 29 30 31 31 32 33 33 34 34 34 34 33 32
29 26 25 25 25 24 24 23 24 25 26 26 26 25 25 24 22 21 21 22 23 23 23 21 20 19 18 17 16 15 14 13 12 12 12 12 13 13 14 14 15 15 16 17 18 19 21 22 24 25 27 28 29 29 30 31 32 32 34 34 34 33 32
31 28 25 23 24 25 24 23 23 24 25 26 27 27 26 24 23 22 22 22 23 24 24 23 22 21 19 18 17 16 16 15 14 14 14 14 14 13 13 14 15 16 17 18 18 19 19 20 21 22 23 24 26 27 28 29 30 31 32 33 33 32 31
32 30 27 23 23 24 25 24 23 23 24 25 26 27 26 25 23 23 22 21 22 24 25 24 23 22 20 19 18 18 18 17 17 16 16 16 16 14 13 13 14 16 17 18 19 20 20 21 21 21 22 23 23 24 25 27 28 29 31 32 32 32 31
32 30 28 24 22 23 24 25 24 23 24 24 25 26 26 24 23 22 22 21 21 22 24 25 24 23 21 20 19 18 19 19 19 18 18 18 17 16 15 14 14 15 16 18 19 20 21 21 22 22 22 23 24 24 24 24 25 26 27 28 29 29 30
35 32 29 25 22 22 23 24 24 23 23 23 24 25 25 24 23 22 21 21 21 21 22 24 25 24 22 20 19 19 19 19 20 20 19 19 19 19 17 16 15 16 17 17 18 19 20 21 22 22 22 22 23 25 26 25 25 25 25 25 25 26 27
37 35 32 28 24 21 21 22 22 23 22 23 23 23 24 24 23 22 21 21 21 21 22 23 24 24 23 21 20 19 19 19 20 20 21 21 21 21 20 18 16 17 17 18 19 19 20 21 21 22 21 21 22 24 26 27 27 26 25 25 25 25 25
38 37 35 32 29 25 22 20 21 22 22 22 22 21 22 23 23 22 21 21 21 21 22 22 23 24 24 23 22 21 20 20 21 21 22 22 22 22 22 20 18 18 18 19 19 20 20 21 21 21 21 21 20 22 25 26 27 26 26 25 25 26 26
Wind_Direction
323 325 325 321 316 312 306 297 286 274 265 258 252 247 243 240 239 238 237 239 242 245 248 251 254 254 252 250 247 244 241 239 238 237 236 236 238 239 241 241 240 239 237 236 236 236 236 236 237 237 237 236 236 236 237 238 238 239 239 239 239 238 238
327 329 331 330 325 320 314 306 296 283 270 259 250 243 239 236 235 235 237 241 245 249 252 254 256 256 256 254 251 248 245 241 239 238 237 236 236 237 238 240 240 239 237 236 236 236 236 236 236 237 237 237 236 236 236 236 237 238 239 239 239 239 239
336 333 334 335 334 329 321 313 303 289 274 260 248 240 236 234 234 236 240 244 248 252 255 257 258 258 258 256 254 251 248 244 240 238 237 237 236 235 236 238 239 240 239 237 237 237 236 236 236 237 237 237 237 237 236 236 236 236 237 238 239 240 240
346 342 338 337 337 336 331 321 306 290 272 257 247 239 236 236 238 241 243 246 249 253 258 261 262 263 262 260 257 253 249 246 243 239 237 236 236 236 235 235 237 238 238 238 237 237 237 237 237 237 237 237 237 237 237 237 236 236 236 237 237 239 240
348 349 347 343 339 337 336 330 315 292 271 256 248 243 241 242 243 245 247 249 253 257 262 265 268 269 269 266 262 257 252 248 245 242 239 238 237 236 235 234 235 236 237 237 237 237 237 238 238 237 237 237 238 238 238 238 238 238 237 237 237 238 239
347 349 351 350 346 341 337 333 323 304 279 262 254 250 248 249 249 251 252 254 258 263 266 269 271 273 275 274 269 262 256 251 247 244 242 240 239 238 236 235 235 235 235 236 236 236 236 237 238 238 238 238 238 238 239 239 239 239 239 239 238 239 239
350 348 350 352 352 348 343 335 325 315 296 276 263 257 255 255 255 256 257 259 262 266 269 270 272 274 277 279 278 272 263 256 250 247 244 242 241 240 238 237 236 235 235 235 235 235 236 236 237 238 238 239 239 239 239 239 240 240 240 240 240 240 240
354 351 349 351 353 352 350 343 331 319 306 292 277 267 261 258 258 258 259 260 262 266 269 270 271 272 274 276 279 280 277 268 258 252 247 244 242 241 240 239 238 237 236 235 235 235 235 235 236 237 238 239 239 240 240 240 241 241 241 241 241 241 241
353 353 350 349 350 350 350 350 344 330 314 300 288 278 269 263 259 258 258 258 258 261 264 267 268 268 268 271 273 276 277 275 270 261 253 248 244 242 241 240 239 239 238 237 236 235 235 235 235 236 237 238 239 240 240 241 241 241 241 241 241 241 241
348 352 352 348 347 345 344 347 349 344 333 315 297 284 276 269 264 260 257 256 257 259 262 263 263 263 264 265 266 268 268 269 267 262 256 251 247 243 240 239 239 239 238 238 237 236 236 236 236 236 237 237 238 239 240 240 241 241 241 242 242 242 242
342 347 351 350 348 345 341 338 341 344 343 334 319 300 283 273 267 263 259 257 258 260 261 261 260 259 260 260 261 262 262 263 263 261 257 253 250 244 240 237 235 235 236 236 237 237 237 237 237 237 237 237 238 239 240 240 241 241 241 242 243 243 243
332 336 342 346 348 348 345 338 334 334 337 337 334 323 306 288 274 266 263 261 260 259 258 258 257 256 255 256 257 258 258 258 259 259 258 256 254 250 245 241 236 232 231 232 232 234 235 236 236 237 237 238 238 239 240 240 241 241 241 242 243 243 243
319 325 330 335 338 343 346 343 337 332 331 331 330 329 324 312 296 281 270 264 261 259 257 255 254 253 252 252 252 253 254 254 253 253 254 254 252 251 249 247 243 237 233 230 228 228 230 231 232 233 235 236 237 238 239 240 241 241 241 242 243 243 243
306 313 319 325 328 332 336 340 340 336 333 330 327 323 320 318 313 303 289 276 267 262 258 255 252 251 250 249 249 248 248 249 249 250 250 251 250 248 246 244 243 241 238 233 229 226 226 227 227 227 229 231 233 235 237 238 240 241 241 242 243 243 243
296 302 308 314 320 323 325 329 333 335 334 332 329 325 318 312 311 309 304 294 282 271 263 257 253 250 249 248 247 247 246 246 246 247 248 248 248 247 246 244 241 241 239 236 231 226 225 226 226 224 226 228 230 231 234 235 237 238 240 241 242 243 243
288 292 298 303 309 315 318 320 323 328 331 331 330 327 321 313 309 306 304 301 295 285 274 263 255 250 248 247 246 246 245 244 244 245 245 245 246 246 247 247 243 240 238 234 231 227 224 225 226 225 226 229 230 231 232 234 235 237 238 240 241 242 243
283 285 290 295 299 304 309 313 316 320 324 326 327 327 323 316 312 307 304 301 298 294 286 273 260 252 249 247 246 245 244 244 243 244 244 244 244 245 247 249 248 244 239 234 231 227 224 224 225 226 226 228 230 231 233 235 236 238 239 240 241 242 242
280 281 283 287 292 296 300 304 308 312 315 317 319 322 321 318 314 310 307 303 300 298 294 283 266 254 249 248 247 246 245 244 242 242 243 243 243 244 246 248 249 248 242 236 231 227 225 224 226 227 228 229 230 232 234 237 239 240 242 242 243 243 244
280 280 281 282 285 289 292 296 300 303 306 308 311 315 317 316 313 310 308 307 305 304 301 291 273 257 249 248 248 248 247 245 243 242 242 242 242 243 244 246 247 245 241 235 230 228 226 226 226 228 229 230 231 233 235 237 240 242 244 245 245 244 245
283 282 281 281 282 284 287 290 294 296 299 301 304 307 311 312 310 308 309 309 310 311 308 297 279 261 251 249 250 251 250 248 245 243 243 243 243 242 242 242 242 240 237 234 231 229 229 228 228 230 231 232 233 234 236 238 239 241 243 245 244 244 244
286 284 283 282 282 283 284 286 289 291 293 295 298 300 303 305 306 306 306 308 311 315 314 301 282 265 255 252 252 253 252 250 247 244 243 243 243 242 241 241 241 239 238 236 233 231 231 231 231 232 232 233 235 237 238 240 241 242 243 244 244 245 244
288 286 285 285 284 284 284 284 285 287 289 290 292 294 295 297 300 300 301 304 309 315 317 309 291 273 261 257 256 256 254 251 248 244 243 242 241 240 241 242 241 240 240 239 237 235 234 235 235 235 235 236 238 240 242 243 243 244 244 245 246 246 246
290 288 287 286 286 286 286 287 287 287 287 288 288 289 289 289 292 294 294 296 302 308 314 315 306 290 275 267 263 262 260 257 252 247 243 240 238 238 240 241 241 242 242 241 239 237 236 237 237 238 239 240 242 244 245 244 245 246 247 248 248 248 248
293 291 289 287 287 287 288 289 290 289 289 289 288 287 285 283 284 286 286 287 291 296 302 309 310 304 292 280 271 267 265 263 258 253 247 241 237 236 237 239 241 243 243 241 239 238 237 238 239 240 242 244 245 245 246 247 248 249 250 250 250 248 248
295 292 290 289 287 288 288 289 290 291 291 291 291 289 287 282 279 278 278 278 279 283 288 294 297 298 296 289 281 273 267 263 259 255 250 245 240 238 237 238 240 242 242 241 240 240 240 240 241 243 245 247 247 248 249 250 250 250 250 250 249 248 247
300 294 292 290 288 287 286 287 289 291 291 292 293 292 290 285 278 273 270 271 271 272 275 280 284 286 285 282 280 277 271 266 261 256 251 247 244 241 241 241 241 243 243 243 242 241 241 241 242 243 244 245 247 249 250 249 249 248 248 249 248 247 246
307 297 293 292 290 288 286 286 287 288 289 291 293 294 292 287 280 272 266 264 264 264 266 270 274 276 276 274 274 275 273 271 267 262 256 251 246 244 243 243 243 244 244 244 244 243 242 242 242 242 243 244 245 246 246 245 246 246 247 247 247 247 246
316 304 295 292 292 292 291 289 288 288 289 290 292 293 292 288 282 274 267 261 259 259 260 262 265 268 271 271 271 272 273 273 273 269 265 261 256 251 248 245 244 245 245 245 245 245 244 244 244 244 244 244 245 245 244 243 244 245 246 247 247 247 247
325 312 299 293 292 293 294 293 292 292 292 291 291 290 289 288 284 277 269 261 256 254 254 256 259 263 266 268 268 270 272 274 275 274 271 268 264 261 258 254 250 247 245 245 245 245 245 245 245 245 245 244 244 244 244 244 244 245 246 247 248 248 248
333 320 305 295 290 291 292 293 293 294 293 292 290 289 287 286 284 278 271 263 256 251 250 252 255 258 262 264 266 268 271 272 274 275 274 271 267 264 263 262 259 256 252 249 247 246 246 246 246 246 246 246 245 245 245 244 244 245 246 247 248 249 249
340 330 316 300 289 286 289 291 290 290 288 287 286 286 286 285 282 277 272 266 258 251 248 248 251 254 258 261 263 264 266 268 269 272 273 273 270 265 263 262 262 261 258 255 252 249 247 246 246 246 246 247 247 247 247 247 246 245 246 248 249 249 250
345 337 327 311 292 283 282 285 286 286 285 284 283 283 283 282 279 275 272 268 262 254 247 246 248 252 255 258 259 260 261 263 263 265 267 271 272 271 267 265 263 261 259 258 257 255 252 249 247 246 245 246 246 247 247 247 248 248 248 249 249 250 250
349 344 335 322 303 287 279 280 283 286 288 287 286 284 282 279 275 272 270 268 265 258 250 245 246 250 254 257 258 257 257 258 259 259 261 265 269 272 271 269 267 264 261 257 256 256 256 255 253 251 248 246 246 246 247 247 247 247 248 249 250 250 250
350 349 344 334 318 299 285 279 280 284 288 289 288 286 283 280 274 270 268 267 266 263 255 248 245 248 252 255 256 256 255 256 256 258 258 260 263 267 269 270 270 269 266 261 257 255 255 255 256 256 254 250 247 246 246 247 247 247 247 248 249 249 249
346 349 349 345 334 317 298 285 280 282 286 289 290 286 282 279 275 269 266 265 265 264 260 253 248 247 250 253 255 255 255 255 255 255 256 257 259 260 263 266 268 270 269 266 262 259 256 255 255 255 256 254 250 247 247 247 248 248 247 246 246 247 247
343 347 349 349 345 335 320 302 289 285 287 290 291 288 281 276 272 268 265 265 265 264 262 257 252 249 250 252 254 255 255 255 255 255 255 256 256 257 258 261 264 267 268 268 265 262 260 258 256 255 255 255 253 250 248 248 249 249 247 245 244 245 245
Height
5337 5334 5330 5327 5323 5320 5317 5314 5313 5312 5311 5312 5313 5314 5316 5318 5320 5322 5323 5325 5326 5328 5330 5331 5332 5332 5333 5333 5334 5336 5338 5341 5344 5348 5353 5359 5365 5371 5377 5385 5390 5400 5416 5427 5428 5435 5445 5450 5452 5457 5464 5471 5478 5483 5488 5492 5497 5502 5509 5515 5520 5525 5530
5334 5331 5328 5324 5321 5318 5315 5313 5311 5309 5309 5309 5309 5311 5312 5313 5315 5317 5318 5320 5321 5322 5324 5325 5325 5325 5324 5324 5325 5326 5327 5329 5332 5335 5338 5344 5350 5356 5364 5370 5375 5384 5398 5410 5414 5421 5431 5437 5438 5443 5451 5458 5464 5470 5475 5479 5485 5491 5497 5503 5508 5513 5518
5332 5329 5326 5323 5319 5316 5313 5311 5309 5308 5307 5307 5307 5308 5309 5310 5312 5313 5314 5315 5316 5317 5318 5319 5318 5317 5316 5315 5316 5317 5317 5318 5321 5323 5326 5330 5334 5341 5350 5356 5362 5370 5383 5395 5402 5409 5417 5423 5425 5430 5440 5446 5449 5454 5459 5465 5473 5480 5485 5490 5495 5500 5506
5330 5327 5324 5321 5318 5315 5312 5310 5308 5307 5306 5306 5306 5306 5307 5308 5309 5309 5310 5311 5312 5312 5312 5312 5312 5311 5309 5308 5308 5308 5307 5308 5310 5312 5314 5318 5320 5326 5336 5343 5348 5355 5366 5378 5388 5395 5403 5409 5412 5417 5426 5431 5434 5439 5445 5452 5460 5467 5472 5478 5484 5490 5495
5328 5325 5322 5319 5317 5314 5311 5309 5307 5306 5305 5305 5304 5305 5305 5305 5306 5306 5307 5307 5307 5308 5308 5307 5306 5305 5304 5302 5301 5300 5299 5299 5301 5302 5305 5308 5310 5314 5322 5328 5332 5338 5349 5360 5372 5382 5390 5394 5398 5403 5412 5418 5420 5425 5432 5438 5446 5453 5459 5466 5473 5479 5485
5327 5324 5321 5318 5315 5313 5311 5308 5307 5305 5304 5303 5303 5303 5303 5303 5303 5303 5303 5304 5304 5304 5303 5302 5301 5300 5299 5298 5296 5294 5293 5293 5293 5295 5297 5299 5302 5305 5309 5314 5319 5326 5335 5345 5357 5368 5375 5379 5383 5390 5398 5404 5407 5412 5418 5425 5432 5439 5446 5453 5461 5468 5472
5325 5322 5320 5317 5314 5312 5309 5307 5306 5304 5303 5302 5301 5301 5301 5300 5300 5300 5300 5300 5300 5300 5299 5299 5297 5296 5295 5294 5292 5291 5289 5289 5288 5289 5290 5292 5294 5296 5300 5305 5310 5316 5323 5332 5342 5353 5360 5365 5370 5377 5384 5391 5394 5398 5404 5411 5418 5427 5434 5442 5449 5454 5458
5325 5322 5319 5316 5313 5311 5308 5306 5304 5303 5301 5300 5299 5299 5298 5298 5298 5298 5297 5297 5297 5296 5296 5295 5294 5293 5292 5291 5290 5288 5287 5286 5285 5285 5285 5286 5288 5290 5293 5297 5301 5306 5313 5320 5329 5338 5346 5352 5357 5363 5371 5378 5380 5384 5393 5402 5408 5415 5422 5427 5432 5438 5442
5324 5321 5318 5315 5313 5310 5308 5305 5303 5301 5300 5298 5298 5297 5296 5295 5295 5295 5294 5294 5293 5293 5292 5292 5291 5290 5289 5289 5288 5287 5285 5284 5284 5283 5283 5283 5284 5286 5288 5291 5295 5299 5305 5311 5317 5325 5331 5337 5343 5350 5358 5364 5368 5373 5382 5390 5392 5397 5406 5412 5414 5419 5425
5322 5320 5317 5314 5312 5309 5307 5304 5302 5300 5298 5296 5295 5294 5294 5293 5292 5292 5291 5291 5290 5290 5289 5288 5288 5287 5287 5286 5286 5285 5284 5283 5283 5282 5282 5282 5282 5283 5285 5287 5290 5293 5298 5303 5308 5314 5319 5324 5332 5339 5345 5350 5355 5360 5367 5371 5375 5383 5393 5397 5398 5403 5411
5321 5318 5316 5313 5310 5308 5305 5303 5301 5299 5297 5295 5293 5292 5291 5290 5290 5289 5288 5288 5287 5287 5286 5285 5285 5284 5284 5284 5283 5283 5282 5282 5282 5282 5282 5282 5282 5283 5284 5285 5287 5290 5293 5297 5301 5305 5309 5315 5322 5328 5332 5337 5343 5347 5351 5357 5362 5370 5378 5381 5383 5391 5400
5319 5317 5314 5312 5309 5307 5304 5302 5299 5297 5295 5294 5292 5290 5288 5287 5287 5286 5285 5285 5284 5284 5283 5283 5282 5281 5281 5281 5281 5280 5280 5280 5280 5280 5280 5281 5281 5282 5284 5285 5286 5288 5290 5293 5296 5299 5303 5308 5314 5318 5322 5327 5331 5335 5339 5344 5349 5355 5362 5367 5370 5378 5387
5317 5314 5312 5310 5307 5305 5303 5300 5298 5295 5293 5292 5290 5288 5286 5285 5284 5283 5282 5281 5281 5280 5280 5279 5279 5278 5278 5278 5278 5278 5278 5278 5278 5278 5278 5279 5279 5281 5282 5284 5285 5287 5289 5291 5293 5296 5299 5303 5306 5310 5314 5317 5320 5324 5328 5333 5338 5344 5350 5354 5358 5365 5373
5314 5311 5310 5308 5305 5303 5301 5299 5296 5294 5291 5290 5288 5286 5285 5283 5281 5280 5279 5278 5277 5277 5276 5276 5276 5275 5275 5275 5275 5275 5275 5276 5276 5276 5276 5277 5278 5279 5280 5281 5283 5285 5287 5289 5291 5294 5297 5299 5302 5305 5307 5309 5312 5316 5320 5324 5329 5334 5338 5342 5346 5352 5358
5310 5308 5306 5305 5303 5300 5298 5297 5295 5292 5290 5287 5286 5284 5282 5281 5279 5277 5276 5275 5274 5273 5272 5272 5272 5272 5272 5272 5272 5272 5273 5273 5273 5274 5274 5275 5276 5277 5277 5279 5281 5282 5284 5286 5288 5291 5293 5295 5298 5300 5302 5304 5307 5311 5314 5317 5320 5324 5327 5331 5335 5340 5345
5307 5305 5303 5301 5300 5297 5295 5294 5292 5290 5288 5285 5283 5282 5280 5278 5276 5275 5273 5272 5270 5269 5268 5268 5268 5268 5268 5268 5268 5268 5269 5270 5271 5271 5272 5273 5273 5274 5275 5276 5278 5279 5281 5283 5285 5287 5289 5291 5293 5296 5298 5300 5303 5306 5309 5311 5314 5317 5319 5323 5327 5331 5335
5303 5301 5300 5297 5296 5294 5292 5290 5289 5287 5285 5283 5281 5279 5277 5275 5274 5272 5270 5268 5267 5266 5264 5263 5263 5263 5263 5263 5264 5265 5265 5266 5267 5268 5269 5270 5270 5271 5272 5273 5274 5275 5277 5279 5281 5283 5285 5287 5289 5291 5294 5296 5299 5301 5303 5305 5309 5311 5313 5316 5319 5323 5325
5298 5297 5296 5294 5292 5291 5289 5287 5286 5284 5282 5280 5278 5277 5275 5273 5271 5269 5267 5265 5264 5262 5260 5258 5258 5258 5258 5259 5259 5260 5261 5262 5264 5265 5265 5266 5267 5268 5270 5270 5271 5272 5273 5275 5277 5279 5281 5283 5285 5287 5289 5292 5294 5296 5298 5301 5304 5305 5307 5310 5313 5315 5317
5293 5291 5291 5289 5288 5286 5285 5284 5282 5280 5278 5277 5275 5274 5272 5270 5268 5266 5264 5262 5260 5258 5256 5254 5253 5253 5254 5255 5255 5256 5257 5258 5260 5261 5261 5262 5264 5265 5266 5267 5267 5268 5269 5271 5272 5274 5276 5278 5280 5282 5284 5287 5289 5291 5294 5296 5298 5300 5302 5304 5307 5308 5309
5288 5286 5285 5284 5283 5281 5281 5279 5278 5276 5275 5273 5272 5270 5269 5267 5265 5263 5261 5259 5257 5255 5252 5250 5249 5249 5250 5251 5252 5253 5253 5254 5255 5257 5258 5258 5260 5261 5262 5262 5262 5264 5265 5266 5268 5270 5272 5274 5276 5278 5280 5282 5285 5287 5289 5292 5293 5295 5297 5298 5300 5302 5303
5283 5281 5279 5278 5277 5276 5275 5274 5273 5272 5270 5269 5268 5266 5265 5264 5262 5260 5258 5257 5255 5253 5250 5248 5247 5247 5247 5248 5248 5249 5249 5250 5251 5252 5253 5254 5255 5256 5257 5258 5259 5261 5262 5263 5265 5266 5268 5270 5272 5274 5276 5278 5281 5283 5285 5287 5288 5290 5291 5293 5295 5296 5298
5278 5276 5274 5273 5272 5271 5270 5269 5268 5267 5266 5265 5263 5262 5261 5260 5259 5257 5256 5254 5252 5251 5249 5247 5246 5245 5245 5245 5245 5246 5246 5246 5247 5248 5249 5250 5251 5252 5253 5254 5256 5257 5258 5260 5262 5263 5265 5267 5269 5271 5273 5275 5277 5278 5280 5282 5283 5285 5286 5288 5289 5291 5292
5273 5271 5270 5268 5267 5266 5265 5264 5263 5262 5261 5260 5259 5258 5257 5256 5255 5254 5253 5251 5250 5249 5248 5246 5245 5244 5243 5243 5243 5243 5243 5243 5243 5244 5245 5246 5247 5248 5249 5251 5252 5253 5255 5257 5258 5260 5262 5264 5266 5267 5269 5271 5272 5274 5275 5276 5278 5280 5281 5283 5284 5285 5287
5268 5267 5265 5263 5262 5261 5260 5259 5258 5257 5256 5255 5254 5253 5252 5252 5251 5251 5250 5249 5248 5247 5246 5245 5244 5243 5242 5241 5241 5241 5240 5240 5240 5240 5241 5242 5243 5244 5246 5247 5248 5250 5251 5253 5254 5256 5258 5260 5262 5263 5265 5266 5268 5269 5270 5272 5274 5275 5276 5277 5279 5280 5282
5263 5262 5261 5259 5258 5256 5255 5254 5254 5253 5252 5251 5250 5249 5248 5248 5247 5247 5247 5246 5245 5245 5244 5243 5243 5242 5241 5240 5239 5239 5238 5238 5238 5238 5238 5239 5240 5241 5242 5243 5245 5246 5247 5249 5251 5252 5254 5256 5258 5259 5260 5262 5263 5264 5266 5268 5269 5270 5271 5272 5274 5275 5277
5259 5258 5256 5255 5254 5252 5251 5250 5249 5248 5248 5247 5246 5245 5245 5244 5243 5243 5243 5243 5242 5242 5241 5241 5241 5240 5240 5239 5238 5237 5237 5236 5236 5236 5236 5236 5237 5238 5239 5240 5241 5242 5244 5245 5247 5248 5250 5251 5253 5254 5255 5257 5258 5260 5262 5263 5264 5265 5266 5268 5269 5271 5272
5255 5254 5252 5251 5250 5248 5247 5246 5245 5245 5244 5243 5242 5242 5241 5240 5240 5240 5239 5239 5239 5239 5239 5238 5238 5238 5238 5237 5237 5236 5236 5235 5235 5234 5234 5234 5235 5235 5236 5237 5238 5239 5240 5241 5243 5244 5245 5247 5248 5249 5251 5252 5254 5256 5257 5258 5259 5260 5261 5263 5264 5266 5267
5252 5250 5249 5247 5246 5244 5243 5242 5241 5241 5240 5239 5239 5238 5237 5237 5236 5236 5236 5236 5236 5236 5236 5236 5235 5235 5235 5235 5235 5235 5234 5234 5234 5233 5233 5233 5233 5233 5234 5234 5235 5236 5237 5238 5239 5240 5242 5243 5244 5245 5247 5248 5250 5251 5252 5254 5255 5256 5257 5258 5260 5261 5263
5248 5246 5245 5243 5242 5241 5239 5238 5237 5236 5235 5235 5234 5234 5233 5233 5233 5233 5232 5232 5232 5232 5232 5233 5233 5232 5232 5233 5233 5233 5233 5232 5232 5232 5232 5232 5231 5231 5232 5232 5232 5233 5234 5235 5236 5237 5238 5239 5240 5241 5243 5244 5245 5247 5248 5249 5250 5252 5253 5254 5255 5256 5258
5245 5243 5241 5239 5238 5237 5236 5235 5233 5232 5231 5230 5230 5230 5229 5229 5229 5228 5228 5228 5228 5228 5229 5229 5230 5230 5230 5230 5230 5230 5230 5230 5230 5230 5230 5230 5230 5230 5230 5230 5230 5231 5231 5232 5233 5233 5234 5235 5236 5237 5238 5239 5241 5242 5243 5244 5246 5247 5248 5248 5250 5252 5253
5243 5240 5238 5236 5235 5233 5232 5231 5230 5229 5227 5226 5225 5225 5225 5225 5225 5224 5223 5223 5224 5224 5225 5226 5226 5227 5227 5227 5227 5228 5228 5228 5228 5228 5228 5228 5228 5228 5228 5228 5228 5228 5228 5229 5229 5230 5231 5231 5232 5233 5234 5235 5236 5237 5238 5239 5241 5242 5243 5244 5245 5246 5248
5241 5238 5235 5233 5231 5230 5229 5228 5227 5226 5225 5223 5222 5221 5221 5221 5221 5220 5219 5220 5220 5220 5221 5222 5223 5223 5224 5224 5225 5225 5225 5225 5225 5225 5225 5225 5225 5225 5225 5225 5225 5226 5226 5226 5226 5227 5227 5228 5229 5230 5230 5231 5232 5233 5234 5235 5236 5237 5238 5239 5240 5241 5243
5240 5236 5232 5230 5228 5226 5225 5224 5223 5222 5221 5220 5218 5218 5217 5217 5217 5216 5216 5216 5216 5216 5217 5218 5219 5220 5220 5221 5221 5222 5222 5222 5222 5223 5223 5223 5223 5223 5223 5223 5223 5223 5223 5223 5223 5224 5224 5224 5225 5226 5227 5228 5228 5229 5230 5231 5232 5232 5233 5234 5235 5237 5238
5238 5234 5231 5228 5225 5223 5221 5220 5220 5218 5217 5216 5215 5214 5213 5213 5212 5212 5212 5212 5212 5213 5213 5214 5215 5216 5217 5218 5218 5219 5219 5219 5219 5219 5220 5220 5220 5220 5220 5220 5220 5220 5220 5220 5220 5220 5221 5221 5222 5222 5223 5224 5225 5225 5226 5226 5227 5228 5229 5230 5231 5232 5233
5235 5232 5229 5226 5223 5220 5218 5217 5216 5215 5214 5212 5211 5210 5209 5209 5208 5208 5208 5209 5209 5209 5210 5210 5211 5212 5213 5214 5215 5215 5216 5216 5216 5216 5216 5217 5217 5217 5217 5217 5217 5217 5217 5217 5217 5217 5217 5218 5218 5218 5219 5220 5221 5221 5222 5222 5223 5224 5225 5226 5227 5228 5229
5232 5229 5226 5223 5220 5217 5215 5213 5212 5211 5210 5209 5208 5207 5206 5205 5205 5205 5205 5205 5206 5206 5206 5207 5208 5209 5209 5210 5211 5211 5212 5212 5213 5213 5213 5213 5214 5214 5214 5214 5214 5214 5214 5214 5214 5214 5214 5214 5214 5215 5215 5216 5217 5217 5218 5218 5219 5220 5221 5222 5223 5224 5225